User: anonymous   Login
Location: Unspecified
(0.0000°N, 0.0000°E)
Time: 16:23:28
(UTC+00:00)
Language:

USA 274 DEB - Orbit

View from above orbital plane
View from above orbital plane
View from above satellite
View from above satellite

Ground track
Ground track

The orbit data is extracted from the following two-line orbital elements,

1 42065U 17011B   24103.81171663 0.00000000  00000-0  00000-0 0    03
2 42065  63.4394  17.2872 0098271   1.6244 358.3755 13.40915544    01
Epoch (UTC): 12 April 2024 19:28:52
Eccentricity: 0.0098271
inclination: 63.4394°
perigee height: 1032 km
apogee height: 1179 km
right ascension of ascending node: 17.2872°
argument of perigee: 1.6244°
revolutions per day: 13.40915544
mean anomaly at epoch: 358.3755°
orbit number at epoch: 0

The dashed part of the orbit path shows where the satellite is in the earth's shadow,  

DLR